This is the latest recevied weather packets stored in our database for station/object N7WSS. If no packets are shown the sender has not sent any weather packets the latest 10 day(s).
| Time | Temp. | Humidity | Pressure | Rain* | Wind** | Luminosity | Snow |
|---|---|---|---|---|---|---|---|
| 1777979966 | 13.89° C | 88% | 1009.7 hPa | 0 mm | - | - | - |
| 1777979661 | 13.89° C | 89% | 1009.9 hPa | 1.27 mm | - | - | - |
| 1777979054 | 13.89° C | 88% | 1009.9 hPa | 0 mm | - | - | - |
| 1777978751 | 13.89° C | 88% | 1010 hPa | 0 mm | - | - | - |
| 1777978448 | 13.89° C | 89% | 1010 hPa | 0 mm | - | - | - |
| 1777978144 | 13.89° C | 89% | 1010.1 hPa | 0 mm | - | - | - |
| 1777977537 | 13.89° C | 90% | 1009.7 hPa | 0 mm | - | - | - |
| 1777977235 | 13.89° C | 91% | 1010 hPa | 0 mm | - | - | - |
| 1777976932 | 13.89° C | 91% | 1009.9 hPa | 1.78 mm | - | - | - |
| 1777976629 | 13.89° C | 92% | 1010.3 hPa | 1.78 mm | - | - | - |
| 1777976325 | 13.89° C | 92% | 1010.5 hPa | 0 mm | - | - | - |
| 1777976019 | 13.89° C | 92% | 1010.6 hPa | 0 mm | - | - | - |
| 1777975716 | 13.89° C | 92% | 1010.5 hPa | 0 mm | - | - | - |
| 1777975413 | 13.89° C | 92% | 1010.7 hPa | 0 mm | - | - | - |
| 1777975108 | 13.89° C | 93% | 1010.6 hPa | 0 mm | - | - | - |
| 1777974806 | 13.33° C | 93% | 1010.7 hPa | 0 mm | - | - | - |
| 1777974502 | 13.89° C | 93% | 1010.9 hPa | 0 mm | - | - | - |
| 1777973894 | 13.89° C | 93% | 1010.9 hPa | 1.27 mm | - | - | - |
| 1777973592 | 13.33° C | 93% | 1011.2 hPa | 0 mm | - | - | - |
| 1777973288 | 13.89° C | 93% | 1011.6 hPa | 1.78 mm | - | - | - |
| 1777972987 | 13.89° C | 93% | 1011.7 hPa | 1.78 mm | - | - | - |
| 1777972684 | 13.89° C | 93% | 1011.6 hPa | 1.27 mm | - | - | - |
| 1777972382 | 13.89° C | 93% | 1011.8 hPa | 1.27 mm | - | - | - |
| 1777972080 | 13.89° C | 93% | 1012 hPa | 1.78 mm | - | - | - |
| 1777971778 | 13.89° C | 93% | 1012.4 hPa | 1.78 mm | - | - | - |
* Rain latest hour (hover to see other rain measurements)
** Current wind speed in m/s (hover to see current wind gust speed)